{"data":{"norad_id":53001,"epoch":"2026-05-25T04:16:42.274848Z","epoch_age_seconds":59836,"freshness":"FRESH","line1":"1 53001U 22076R   26145.17826707  .00000583  00000+0  54699-4 0  9994","line2":"2 53001  53.2122 110.7485 0001502  80.7492 279.3670 15.08841441214399","mean_motion":15.08841441,"eccentricity":0.0001502,"inclination_deg":53.2122,"raan_deg":110.7485,"arg_perigee_deg":80.7492,"mean_anomaly_deg":279.367,"bstar":5.4699e-5,"rev_number":21439,"period_min":95.437463531332,"perigee_km":538.69991943423,"apogee_km":540.77804937995,"semimajor_km":6917.8759844071,"source":"CELESTRAK","updated_at":"2026-05-25T13:38:17.276290Z"}}